TimePST,TemperatureF,Dew PointF,Humidity,Sea Level PressureIn,VisibilityMPH,Wind Direction,Wind SpeedMPH,Gust SpeedMPH,PrecipitationIn,Events,Conditions,WindDirDegrees,DateUTC
12:21 AM,42.8,41.0,93,30.18,4.0,NW,9.2,-,N/A,,Scattered Clouds,320,2012-12-25 08:21:00
12:29 AM,41.0,39.2,93,30.18,2.5,NNW,6.9,-,N/A,,Mostly Cloudy,330,2012-12-25 08:29:00
12:36 AM,41.0,39.2,93,30.18,3.0,NNW,6.9,-,N/A,,Scattered Clouds,330,2012-12-25 08:36:00
12:53 AM,41.0,39.9,96,30.19,2.5,NW,6.9,-,N/A,,Scattered Clouds,320,2012-12-25 08:53:00
12:58 AM,39.2,39.2,100,30.18,1.5,NW,5.8,-,N/A,,Mostly Cloudy,320,2012-12-25 08:58:00
1:11 AM,41.0,39.2,93,30.18,0.8,North,3.5,-,N/A,,Mostly Cloudy,350,2012-12-25 09:11:00
1:30 AM,41.0,39.2,93,30.19,0.2,NNW,4.6,-,N/A,Fog,Fog,330,2012-12-25 09:30:00
1:53 AM,41.0,39.9,96,30.20,0.2,NNW,5.8,-,N/A,Fog,Fog,340,2012-12-25 09:53:00
2:22 AM,41.0,39.2,93,30.20,0.2,NNW,6.9,-,N/A,Fog,Fog,330,2012-12-25 10:22:00
2:53 AM,41.0,39.9,96,30.19,0.2,Calm,Calm,-,N/A,Fog,Fog,0,2012-12-25 10:53:00
3:53 AM,39.9,39.0,97,30.17,0.2,Calm,Calm,-,N/A,Fog,Fog,0,2012-12-25 11:53:00
4:02 AM,39.2,39.2,100,30.15,0.2,Calm,Calm,-,N/A,Fog,Fog,0,2012-12-25 12:02:00
4:53 AM,39.9,39.0,97,30.15,0.2,Calm,Calm,-,N/A,Fog,Fog,0,2012-12-25 12:53:00
5:14 AM,39.2,37.4,93,30.14,0.2,Calm,Calm,-,N/A,Fog,Fog,0,2012-12-25 13:14:00
5:24 AM,39.2,39.2,100,30.15,0.5,Calm,Calm,-,N/A,Fog,Fog,0,2012-12-25 13:24:00
5:36 AM,39.2,39.2,100,30.14,0.2,Calm,Calm,-,N/A,Fog,Fog,0,2012-12-25 13:36:00
5:45 AM,39.2,37.4,93,30.14,0.2,Calm,Calm,-,N/A,Fog,Fog,0,2012-12-25 13:45:00
5:53 AM,39.0,37.9,96,30.15,0.2,Calm,Calm,-,N/A,Fog,Fog,0,2012-12-25 13:53:00
6:32 AM,37.4,37.4,100,30.13,0.2,SE,3.5,-,N/A,Fog,Fog,140,2012-12-25 14:32:00
6:39 AM,37.4,37.4,100,30.13,0.2,ESE,3.5,-,N/A,Fog,Fog,120,2012-12-25 14:39:00
6:53 AM,37.9,37.9,100,30.13,0.2,ESE,4.6,-,N/A,Fog,Fog,120,2012-12-25 14:53:00
7:53 AM,37.9,37.9,100,30.14,0.2,SSW,3.5,-,N/A,Fog,Fog,210,2012-12-25 15:53:00
8:16 AM,37.4,37.4,100,30.14,0.2,SSW,4.6,-,N/A,Fog,Fog,200,2012-12-25 16:16:00
8:53 AM,39.0,37.9,96,30.14,0.2,Variable,3.5,-,N/A,Fog,Fog,0,2012-12-25 16:53:00
9:53 AM,39.9,39.0,97,30.18,0.2,Calm,Calm,-,N/A,Fog,Fog,0,2012-12-25 17:53:00
10:43 AM,42.8,41.0,93,30.15,0.8,ENE,4.6,-,N/A,,Overcast,60,2012-12-25 18:43:00
10:53 AM,42.1,41.0,96,30.15,0.8,East,5.8,-,N/A,,Overcast,90,2012-12-25 18:53:00
11:00 AM,42.8,41.0,93,30.14,1.2,East,6.9,-,N/A,,Overcast,80,2012-12-25 19:00:00
11:53 AM,44.1,43.0,96,30.12,1.5,SE,5.8,-,N/A,,Overcast,130,2012-12-25 19:53:00
12:17 PM,44.6,42.8,93,30.11,2.0,ENE,3.5,-,N/A,,Overcast,70,2012-12-25 20:17:00
12:53 PM,46.0,43.0,89,30.11,3.0,Calm,Calm,-,N/A,,Overcast,0,2012-12-25 20:53:00
1:30 PM,46.4,44.6,93,30.07,3.0,Calm,Calm,-,N/A,,Mostly Cloudy,0,2012-12-25 21:30:00
1:53 PM,46.9,43.0,86,30.08,4.0,Calm,Calm,-,N/A,,Mostly Cloudy,0,2012-12-25 21:53:00
2:53 PM,48.0,44.1,86,30.09,4.0,Calm,Calm,-,N/A,,Overcast,0,2012-12-25 22:53:00
3:53 PM,48.0,45.0,89,30.02,3.0,East,10.4,-,0.00,Rain,Light Rain,80,2012-12-25 23:53:00
4:53 PM,48.0,45.0,89,29.99,4.0,East,5.8,-,0.00,,Scattered Clouds,100,2012-12-26 00:53:00
5:53 PM,46.9,45.0,93,29.97,4.0,SW,9.2,-,0.00,,Overcast,220,2012-12-26 01:53:00
6:23 PM,46.4,44.6,93,29.93,3.0,SW,10.4,-,0.01,,Overcast,230,2012-12-26 02:23:00
6:53 PM,46.0,44.1,93,29.94,4.0,SW,8.1,-,0.01,,Scattered Clouds,220,2012-12-26 02:53:00
7:53 PM,46.9,44.1,90,29.93,7.0,SSW,5.8,-,N/A,,Overcast,210,2012-12-26 03:53:00
8:53 PM,46.9,44.1,90,29.95,7.0,Variable,4.6,-,N/A,,Overcast,0,2012-12-26 04:53:00
9:53 PM,46.9,45.0,93,29.97,3.0,NNE,5.8,-,0.02,Rain,Light Rain,20,2012-12-26 05:53:00
10:05 PM,46.4,44.6,93,29.96,2.5,NE,8.1,-,0.03,Rain,Rain,50,2012-12-26 06:05:00
10:44 PM,46.4,44.6,93,29.95,3.0,ENE,9.2,17.3,0.08,Rain,Light Rain,70,2012-12-26 06:44:00
10:53 PM,46.9,45.0,93,29.96,2.5,ENE,9.2,-,0.10,Rain,Rain,70,2012-12-26 06:53:00
11:14 PM,46.4,44.6,93,29.94,4.0,ENE,10.4,-,0.02,Rain,Light Rain,70,2012-12-26 07:14:00
11:53 PM,46.9,44.1,90,29.94,9.0,East,10.4,-,0.02,Rain,Light Rain,80,2012-12-26 07:53:00